Station BRHC3 - 8467150 - Bridgeport, CT Image indicating link to RSS feed of recent meteorological observations for station BRHC3


Conditions at BRHC3 as of
(3:00 pm EDT)
1900 GMT on 06/05/2023:
     

Click on the graph icon in the table below to see a time series plot of the last five days of that observation.

5-day plot - Wind Direction Wind Direction (WDIR): N ( 350 deg true )
5-day plot - Wind Speed Wind Speed (WSPD):5.7 m/s
5-day plot - Wind Gust Wind Gust (GST):10.8 m/s
5-day plot - Atmospheric Pressure Atmospheric Pressure (PRES):1008.7 mb
5-day plot - Pressure Tendency Pressure Tendency (PTDY): -1.5 mb ( Falling )
5-day plot - Air Temperature Air Temperature (ATMP): 20.7 °C
5-day plot - Water Temperature Water Temperature (WTMP): 16.8 °C
5-day plot - Wind Speed at 10 Meters Wind Speed at 10 meters (WSPD10M): 6 m/s
5-day plot - Wind Speed at 20 Meters Wind Speed at 20 meters (WSPD20M): 7 m/s
5-day plot -  Wind Speed, Wind Gust and Atmospheric Pressure Combined plot of Wind Speed, Gust, and Air Pressure
NOS Water Level Observation Network Water Level
Previous observations
TIME
(EDT)
5-day plot - Wind Direction
WDIR
 
5-day plot - Wind Speed
WSPD
m/s
5-day plot - Wind Gust
GST
m/s
5-day plot - Wave Height
WVHT
m
5-day plot - Dominant Wave Period
DPD
sec
5-day plot - Average Wave Period
APD
sec
5-day plot - Mean Wave Direction
MWD
 
5-day plot - Atmospheric Pressure
PRES
mb
5-day plot - Pressure Tendency
PTDY
mb
5-day plot - Air Temperature
ATMP
°C
5-day plot - Water Temperature
WTMP
°C
5-day plot - Dew Point
DEWP
°C
5-day plot - Salinity
SAL
psu
5-day plot - Visibility
VIS
km
5-day plot - Tide (above MLLW)
TIDE
m
2023-06-05 02:54 pmNNW 5.7 8.2----1008.7- 20.4 16.7----
2023-06-05 02:48 pm N 3.1 7.7----1008.7- 21.2 16.8----
2023-06-05 02:42 pm N 3.1 7.2----1008.7- 21.0 16.8----
2023-06-05 02:36 pmNNE 4.6 8.2----1008.7- 20.7 16.8----
2023-06-05 02:30 pmNNW 3.6 5.7----1008.7- 20.4 17.0----
2023-06-05 02:24 pm N 3.6 5.7----1008.7- 20.4 16.7----
2023-06-05 02:18 pm N 5.7 9.3------ 20.5 16.7----
2023-06-05 02:12 pm N 6.2 8.2------ 20.4 16.7----
2023-06-05 02:06 pm N 5.1 9.3------ 20.6 16.8----
2023-06-05 02:00 pm N 4.1 7.2----1009.0 -1.9 20.7 16.8----
2023-06-05 01:54 pmNNW 5.1 6.7----1008.9- 19.9 16.8----
2023-06-05 01:48 pmNNW 4.6 8.2----1009.1- 19.9 16.8----
2023-06-05 01:42 pm N 4.1 6.7----1009.1- 19.9 16.8----
2023-06-05 01:36 pm N 5.1 6.7----1009.2- 20.2 16.8----
2023-06-05 01:30 pmNNW 2.6 5.7----1009.3- 19.9 16.9----
2023-06-05 01:24 pm N 4.6 6.7----1009.5- 19.6 16.8----
2023-06-05 01:18 pmNNW 5.1 7.2----1009.5- 19.3 16.8----
2023-06-05 01:12 pmNNW 5.7 8.2----1009.5- 19.3 16.8----
2023-06-05 01:06 pm N 4.6 7.2----1009.5- 19.4 16.8----
2023-06-05 01:00 pmNNW 2.6 6.7----1009.6 -1.8 19.6 16.8----
2023-06-05 12:54 pm N 5.1 9.3----1009.7- 19.9 16.8----
2023-06-05 12:48 pm N 5.1 7.7----1009.8- 19.5 16.8----
2023-06-05 12:42 pm N 4.6 8.2----1009.9- 18.8 16.8----
2023-06-05 12:36 pm N 4.6 7.7----1009.9- 18.7 16.8----
2023-06-05 12:30 pmNNW 3.6 6.7----1010.0- 19.0 16.9----
2023-06-05 12:24 pmNNW 5.1 6.7----1010.1- 18.3 16.9----
2023-06-05 12:18 pm N 4.1 6.2----1010.1- 18.6 16.9----
2023-06-05 12:12 pmNNW 4.1 8.2----1010.1- 18.3 16.9----
2023-06-05 12:06 pm N 5.1 7.2----1010.1- 18.2 16.8----
2023-06-05 12:00 pmNNE 3.6 6.7----1010.2 -1.5 18.8 16.9----
2023-06-05 11:54 am N 3.1 6.2----1010.4- 18.5 16.9----
2023-06-05 11:48 amNNW 3.6 5.1----1010.4- 17.7 16.8----
2023-06-05 11:42 am N 4.1 6.2----1010.5- 17.9 16.9----
2023-06-05 11:36 amNNW 5.7 7.2----1010.5- 17.3 16.9----
2023-06-05 11:30 am N 3.1 5.1----1010.6- 17.9 16.9----
2023-06-05 11:24 am N 3.6 7.7----1010.6- 17.5 16.9----
2023-06-05 11:18 amNNW 4.6 8.2----1010.6- 17.3 16.9----
2023-06-05 11:12 am N 4.1 6.7----1010.7- 17.6 16.8----
2023-06-05 11:06 am N 4.6 6.7----1010.9- 17.1 16.8----
2023-06-05 11:00 am N 3.1 5.7----1010.9 -1.3 17.4 16.8----
2023-06-05 10:54 am N 2.6 5.7----1010.9- 16.7 16.8----
2023-06-05 10:48 amNNW 5.1 7.2----1011.1- 16.1 16.9----
2023-06-05 10:42 amNNW 4.1 5.7----1011.1- 16.3 16.9----
2023-06-05 10:36 amNNW 3.6 5.7----1011.2- 16.0 16.9----
2023-06-05 10:30 am N 4.1 7.7----1011.2- 16.0 16.8----
2023-06-05 10:24 amNNW 3.6 6.2----1011.3- 15.6 16.9----
2023-06-05 10:18 am N 4.1 6.2----1011.4- 15.3 16.9----
2023-06-05 10:12 am N 3.1 5.7----1011.4- 15.5 16.9----
2023-06-05 10:06 am N 3.1 5.1----1011.4- 15.2 16.8----
2023-06-05 10:00 amNNW 3.6 5.7----1011.4 -1.3 14.8 16.8----
2023-06-05 09:54 am N 3.1 5.1----1011.5- 14.8 16.8----
2023-06-05 09:48 am N 3.6 6.2----1011.6- 14.6 16.8----
2023-06-05 09:42 am N 4.1 5.1----1011.6- 14.4 16.8----
2023-06-05 09:36 am N 2.6 5.1----1011.7- 14.6 16.9----
2023-06-05 09:30 am N 2.1 4.6----1011.7- 14.7 16.8----
2023-06-05 09:24 amNNW 3.1 5.1----1011.7- 14.5 16.9----
2023-06-05 09:18 amNNW 4.6 6.2----1011.7- 14.5 17.0----
2023-06-05 09:12 am N 4.1 6.2----1011.7- 14.6 16.8----
2023-06-05 09:06 am N 2.6 6.7----1011.7- 14.6 16.9----
2023-06-05 09:00 am N 4.1 7.2----1011.7 -1.2 14.4 16.9----
2023-06-05 08:54 am N 3.1 5.7----1011.7- 14.5 16.9----
2023-06-05 08:48 amNNW 1.5 2.1----1011.8- 14.3 16.9----
2023-06-05 08:42 amNNW 2.1 2.6----1011.9- 13.9 17.0----
2023-06-05 08:36 am N 2.1 3.1----1012.0- 13.6 16.9----
2023-06-05 08:30 amNNW 2.6 3.1----1012.0- 13.2 16.9----
2023-06-05 08:24 amNNW 1.5 3.1----1012.1- 13.1 16.9----
2023-06-05 08:18 am-------1012.2- 13.0 16.9----
2023-06-05 08:12 am-------1012.2- 12.7 16.9----
2023-06-05 08:06 am-------1012.2- 12.8 16.8----
2023-06-05 08:00 am NW 2.1 3.1----1012.2 -0.7 12.4 17.0----
2023-06-05 07:54 am NW 0.5 2.6----1012.3- 12.4 17.1----
2023-06-05 07:48 am NW 1.5 2.6----1012.3- 12.0 17.0----
2023-06-05 07:42 amWNW 1.5 2.6----1012.4- 11.7 17.0----
2023-06-05 07:36 am NW 1.5 3.6----1012.4- 11.6 16.9----
2023-06-05 07:30 am NW 2.1 3.6----1012.5- 11.4 17.0----
2023-06-05 07:24 am W 2.1 3.6----1012.5- 11.1 17.1----
2023-06-05 07:18 amWNW 1.5 3.6----1012.5- 11.1 17.2----
2023-06-05 07:12 amWSW 2.1 3.6----1012.6- 11.0 17.1----
2023-06-05 07:06 am W 1.5 2.6----1012.7- 10.9 17.0----
2023-06-05 07:00 am W 2.1 3.6----1012.7 -0.6 10.6 17.0----
2023-06-05 06:54 amWSW 2.6 4.1----1012.8- 10.5 17.0----
2023-06-05 06:48 amWSW 2.6 3.6----1012.9- 10.8 17.0----
2023-06-05 06:42 am W 1.5 1.5----1012.9- 11.1 17.1----
2023-06-05 06:36 amWSW 0.5 1.5----1012.9- 11.2 17.1----
2023-06-05 06:30 am SW 1.5 2.1----1012.9- 10.9 17.2----
2023-06-05 06:24 am W 2.1 2.6----1012.9- 10.9 17.1----
2023-06-05 06:18 am W 1.0 2.6----1013.0- 11.3 17.1----
2023-06-05 06:12 am W 1.5 2.6----1013.0- 11.1 17.1----
2023-06-05 06:06 am NW 2.1 2.6----1013.0- 11.1 17.1----
2023-06-05 06:00 amWSW 2.1 2.6----1012.9 -0.5 10.4 17.1----
2023-06-05 05:54 amWSW 2.1 2.6----1012.8- 10.5 17.0----
2023-06-05 05:48 am W 1.0 1.5----1012.8-- 17.0----
2023-06-05 05:42 am NW 0.5 1.5----1012.8-- 17.0----
2023-06-05 05:36 amNNW 1.5 2.6----1012.9-- 17.0----
2023-06-05 05:30 amNNW 1.5 2.6----1012.9- 10.9 17.0----
2023-06-05 05:24 amNNW 1.5 2.6----1012.9- 10.9 17.0----
2023-06-05 05:18 am N 2.1 2.6----1012.9- 11.0 17.0----
2023-06-05 05:12 amNNW 1.5 2.6----1012.9- 11.1 17.0----
2023-06-05 05:06 amNNW 1.5 2.6----1012.9- 11.2 17.0----
2023-06-05 05:00 am N 1.5 2.6----1012.9 -0.8 11.1 17.0----
2023-06-05 04:54 amNNW 1.5 2.1----1012.9- 11.2 17.1----
2023-06-05 04:48 am N 1.5 2.6----1012.9-- 17.0----
2023-06-05 04:42 am N 1.0 2.1----1012.9-- 17.0----
2023-06-05 04:36 amNNW 2.1 3.1----1012.9-- 17.0----
2023-06-05 04:30 amNNW 2.1 3.1----1012.9- 11.1 17.0----
2023-06-05 04:24 amNNW 1.5 2.6----1012.9- 10.9 17.0----
2023-06-05 04:18 amNNW 1.5 2.6----1013.0- 11.0 17.0----
2023-06-05 04:12 amNNW 1.5 3.1----1013.2- 10.9 17.0----
2023-06-05 04:06 am N 2.1 3.1----1013.3- 10.9 17.0----
2023-06-05 04:00 am N 2.1 3.1----1013.3 -0.9 10.8 17.0----
2023-06-05 03:54 amNNW 2.6 3.6----1013.4- 10.9 16.9----
2023-06-05 03:48 amNNW 2.1 2.6----1013.4- 10.8 16.9----
2023-06-05 03:42 amNNW 1.5 2.6----1013.5- 10.8 16.9----
2023-06-05 03:36 am N 1.5 3.1----1013.4- 10.5 16.9----
2023-06-05 03:30 amNNE 2.1 3.1----1013.4- 10.5 16.8----
2023-06-05 03:24 amNNW 2.1 2.6----1013.4- 10.8 16.8----
2023-06-05 03:18 amNNW 2.1 2.6----1013.4- 10.7 16.8----
2023-06-05 03:12 am N 1.0 2.6----1013.4- 10.6 16.8----
2023-06-05 03:06 amNNW 1.5 3.1----1013.5- 10.6 16.8----
2023-06-05 03:00 am N 1.5 2.6----1013.4 -1.4 10.5 16.8----
2023-06-05 02:54 am N 1.5 2.6----1013.5- 10.8 16.8----
2023-06-05 02:48 amNNW 1.5 2.6----1013.4- 10.8 16.8----
2023-06-05 02:42 amNNW 1.5 2.6----1013.4- 10.8 16.8----
2023-06-05 02:36 amNNW 1.5 2.6----1013.5- 10.8 16.8----
2023-06-05 02:30 am N 1.0 2.1----1013.6- 10.5 16.8----
2023-06-05 02:24 amNNE 1.5 2.6----1013.6- 10.5 16.8----
2023-06-05 02:18 amNNE 1.5 2.6----1013.6- 10.5 16.8----
2023-06-05 02:12 am N 1.0 2.6----1013.6- 10.6 16.8----
2023-06-05 02:06 am N 1.5 2.6----1013.7- 10.6 16.8----
2023-06-05 02:00 amNNE 1.5 2.6----1013.7 -1.4 10.6 16.8----
2023-06-05 01:54 amNNE 1.5 2.6----1013.9- 10.7 16.8----
2023-06-05 01:48 amNNE 1.5 3.1----1013.9- 10.8 16.8----
2023-06-05 01:42 am N 2.1 3.1----1013.9- 11.0 16.9----
2023-06-05 01:36 amNNE 2.1 3.1----1014.0- 11.0 16.9----
2023-06-05 01:30 am N 2.6 3.6----1014.0- 11.2-----
2023-06-05 01:24 am N 1.5 2.6----1014.0- 11.2-----
2023-06-05 01:18 am N 1.5 2.6----1014.0- 11.5 16.9----
2023-06-05 01:12 amNNW 1.5 2.6----1014.1- 11.6 16.9----
2023-06-05 01:06 am N 1.5 2.6----1014.1- 11.7 16.9----
2023-06-05 01:00 am N 1.5 3.1----1014.2 -1.1 11.4 16.9----
2023-06-05 12:54 am N 1.5 3.6----1014.3- 11.5 16.9----
2023-06-05 12:48 amNNE 2.1 3.1----1014.4- 11.5 17.0----
2023-06-05 12:42 amNNE 2.1 3.1----1014.5- 11.5 17.0----
2023-06-05 12:36 am N 1.5 3.6----1014.5- 11.7 17.0----
2023-06-05 12:30 am N 1.5 2.6----1014.5- 11.8 17.0----
2023-06-05 12:24 am N 2.1 3.1----1014.5- 12.0 17.0----
2023-06-05 12:18 am N 2.6 3.6----1014.5- 12.0 17.1----
2023-06-05 12:12 amNNW 2.1 3.1----1014.6- 12.1 17.1----
2023-06-05 12:06 amNNW 2.1 2.6----1014.7- 12.1 17.0----
2023-06-05 12:00 am N 2.1 2.6----1014.8- 12.1 17.1----
2023-06-04 11:54 pmNNW 2.1 2.6----1014.9- 12.2 17.1----
2023-06-04 11:48 pmNNW 1.5 3.1----1015.0- 12.2 17.1----
2023-06-04 11:42 pm N 2.1 3.1----1015.1- 12.1 17.2----
2023-06-04 11:36 pm N 2.1 3.1----1015.2- 12.3 17.1----
2023-06-04 11:30 pm N 2.1 2.6----1015.2- 12.3 17.1----
2023-06-04 11:24 pm N 2.1 2.6----1015.1- 12.3 17.2----
2023-06-04 11:18 pmNNE 2.6 4.1----1015.1- 12.3 17.3----
2023-06-04 11:12 pmNNE 2.6 3.6----1015.1- 12.3 17.2----
2023-06-04 11:06 pmNNE 2.6 3.6----1015.1- 12.4 17.2----
2023-06-04 11:00 pmNNE 2.6 4.1----1015.1- 12.6 17.2----
2023-06-04 10:54 pmNNE 2.6 4.1----1015.1- 12.6 17.2----
2023-06-04 10:48 pmNNE 2.6 3.6----1015.2- 12.6 17.3----
2023-06-04 10:42 pmNNE 3.1 4.6----1015.1- 12.8 17.2----
2023-06-04 10:36 pmNNE 2.6 3.6----1015.2- 12.9 17.2----
2023-06-04 10:30 pmNNE 2.1 3.6----1015.1- 13.0 17.2----
2023-06-04 10:24 pmNNE 2.6 3.1----1015.1- 13.1 17.3----
2023-06-04 10:18 pm N 2.1 3.1----1015.2- 13.2 17.3----
2023-06-04 10:12 pm N 2.1 3.1----1015.2- 13.4 17.2----
2023-06-04 10:06 pmNNE 2.6 3.1----1015.3- 13.3 17.3----
2023-06-04 10:00 pm N 2.6 3.6----1015.3- 13.5 17.3----
2023-06-04 09:54 pm N 2.6 5.7----1015.4- 13.6 17.3----
2023-06-04 09:48 pmNNE 2.6 5.1----1015.4- 13.6 17.4----
2023-06-04 09:42 pm N 3.1 4.6----1015.4- 13.7 17.4----
2023-06-04 09:36 pmNNE 4.1 6.2----1015.4- 13.7 17.2----
2023-06-04 09:30 pm--------- 13.8 17.4----
2023-06-04 09:24 pm--------- 13.9 17.3----
2023-06-04 09:18 pm--------- 13.9 17.3----
2023-06-04 09:12 pm--------- 13.9 17.2----
2023-06-04 09:06 pm--------- 13.9 17.4----
2023-06-04 09:00 pm--------- 13.8 17.3----
2023-06-04 08:54 pm--------- 13.9 17.3----
2023-06-04 08:48 pm--------- 13.9 17.4----
2023-06-04 08:42 pm--------- 13.9 17.4----
2023-06-04 08:36 pm--------- 13.9 17.3----
2023-06-04 08:30 pm--------- 13.9 17.2----
2023-06-04 08:24 pm--------- 14.1 17.3----
2023-06-04 08:18 pm--------- 14.1 17.3----
2023-06-04 08:12 pm--------- 14.1 17.1----
2023-06-04 08:06 pm--------- 14.1 17.2----
2023-06-04 08:00 pm--------- 14.2 17.4----
2023-06-04 07:54 pm--------- 14.3 17.4----
2023-06-04 07:48 pm--------- 14.3 17.6----